IRIDIUM 107

Last updated on Sun Jun 21 2026 00:03:14 GMT+0000 (Coordinated Universal Time)

1 42960U 17061F 26171.00623467 .00000177 00000+0 56141-4 0 9996 2 42960 86.3967 24.0921 0001913 83.2895 276.8518 14.34218101455229
UTC large
Height (km)
Speed (km/s)
/
Latitude / Longitude
Inclination (degrees)
Orbital Period (minutes)
Azimuth
Elevation
Range (km)
Doppler Factor

Next 0 passes for location: London (51.5072 / 0.1276)

No passes found over London.
IRIDIUM 107